Location: ??????
(41.3164°N, 22.6615°E)
Time: 10:05:09
(UTC+00:00)

CZ-4 R/B - Pass Details

Date: 16 October 2021
Orbit: 530 x 595 km, 97.8° (Epoch: 07 December)

Event Time Altitude Azimuth Distance (km) Brightness Sun altitude
Rises 18:01:28 0° 194° (SSW) 2,692 4.9 -26.0°
Reaches altitude 10° 18:03:50 10° 207° (SSW) 1,815 4.1 -26.4°
Maximum altitude 18:07:08 26° 265° (W) 1,124 3.5 -27.0°
Drops below altitude 10° 18:10:31 10° 322° (NW) 1,860 4.6 -27.6°
Sets 18:12:58 0° 335° (NNW) 2,775 5.4 -28.1°
